Вернуться в каталог

KUIPER-00631

АктивенСвязьLEO
NORAD 69784·PAYLOAD·🇺🇸 United States

Запущен Jul 2, 2026 с Cape Canaveral Space Force Station

Loading…

Ближайшие Пролёты (ближайшие 24 часа)

TLE

СвежийSource: CelesTrak SupGP

Эпоха: Sep 14, 2026, 21:45 UTC

1 69784C 26151X   26257.90671296  .00003508  00000+0  45937-3 0  2574
2 69784  51.8995 261.4274 0000800  76.9332 165.2639 14.79911366    17

Отслеживайте KUIPER-00631 в реальном времени с AllMySat

Download on the App Store